User: anonymous   Login
Location: Unspecified
(0.0000°N, 0.0000°E)
Time: 04:09:01
(UTC+00:00)
Language:

ARIANE 5 DEB (SYLDA) - Orbit

View from above orbital plane
View from above orbital plane
View from above satellite
View from above satellite

Ground track
Ground track

The orbit data is extracted from the following two-line orbital elements,

1 26722U 01011D   17146.36454889 -.00000118 +00000-0 -71407-3 0  9992
2 26722 002.1449 027.6433 7073852 007.7610 071.7534 02.22887789132094
Epoch (UTC): 26 May 2017 08:44:57
Eccentricity: 0.7073852
inclination: 2.1449°
perigee height: 866 km
apogee height: 35889 km
right ascension of ascending node: 27.6433°
argument of perigee: 7.7610°
revolutions per day: 2.22887789
mean anomaly at epoch: 71.7534°
orbit number at epoch: 13209

The dashed part of the orbit path shows where the satellite is in the earth's shadow,  

DLR